{"data":{"norad_id":56497,"intl_designator":"2023-064BB","name":"STARLINK-5527","alt_names":[],"object_type":"PAYLOAD","status":"ACTIVE","operator":null,"country":"US","launch_date":"2023-05-10","launch_site_code":"AFWTR","launch_vehicle":null,"mission":null,"orbit_class":"UNKNOWN","rcs_meters":null,"size_class":null,"mass_kg":null,"dimensions":null,"purposes":["comms"],"wikipedia_slug":null,"has_3d_model":false,"image_url":null,"decayed_at":null,"tle_current":{"epoch":"2026-05-25T01:11:46.981248Z","epoch_age_seconds":81032,"freshness":"FRESH","line1":"1 56497U 23064BB  26145.04984932  .00000421  00000+0  43071-4 0  9998","line2":"2 56497  69.9990 271.7950 0003620 266.0061  94.0684 14.98333186167672","mean_motion":14.98333186,"eccentricity":0.000362,"inclination_deg":69.999,"raan_deg":271.795,"arg_perigee_deg":266.0061,"mean_anomaly_deg":94.0684,"bstar":4.3071e-5,"rev_number":16767,"period_min":96.106794767342,"perigee_km":569.53007225974,"apogee_km":574.56200477963,"semimajor_km":6950.1830385197,"source":"CELESTRAK","updated_at":"2026-05-25T13:38:18.076810Z"}}}